Flag for Australia Weather past 2 weeks in Adelaide, South Australia, Australia

Now
52 °F

Sunny.


Feels Like: 49 °F
Forecast: 48 / 58 °F
Wind: 8 mph from East

Location: Adelaide Airport

Current Time: Jul 8, 2015 at 10:00:12 AM

Latest Report: Jul 8, 2015 at 9:30 AM


Visibility: 10 mi

Pressure: 30.24 "Hg

Humidity: 88%

Dew point: 48 °F

Location of AdelaideLocation

Historic Weather in Adelaide — Graph

°F

Adelaide temperature yesterday

Maximum temperature yesterday: 59 °F (at 11:30 AM)
Minimum temperature yesterday: 50 °F (at 11:30 PM)
Average temperature yesterday: 55 °F

Past Weeks' High & Low Weather Summary

 TemperatureHumidityPressure
High63 °F (Jun 23, 2:00 PM)100% (Jun 23, 7:00 PM)30.57 "Hg (Jun 23, 7:00 PM)
Low37 °F (Jun 27, 6:00 AM)41% (Jul 1, 1:00 PM)29.95 "Hg (Jun 23, 1:30 PM)
Average51 °F78%30.31 "Hg
* Reported Jun 23 8:30 AM — Jul 8 9:00 AM, Adelaide, Weather by CustomWeather, © 2015

Note: Actual official high and low records may vary slightly from our data, if they occured in-between our weather recording intervals... More about our weather records

Advertising

Adelaide weather history for previous 24 hours

 ConditionsComfort  
Time TempWeatherWind HumidityBarometerVisibility
9:00 AM
Wed, Jul 8
50 °FPartly sunny.7 mph94%30.24 "HgN/A
8:30 AM50 °FCool.5 mph94%30.24 "HgN/A
8:24 AM50 °FPartly sunny.5 mph94%30.24 "Hg6 mi
8:00 AM48 °FPartly sunny.7 mph100%30.24 "Hg4 mi
7:30 AM48 °FFog.7 mph100%30.24 "Hg3 mi
6:30 AM48 °FFog.6 mph100%30.24 "Hg1 mi
6:00 AM48 °FPassing clouds.7 mph100%30.21 "Hg1 mi
5:30 AM48 °FFog.9 mph100%30.21 "Hg2 mi
4:30 AM48 °FFog.6 mph100%30.21 "Hg0 mi
4:00 AM48 °FFog.3 mph100%30.21 "Hg0 mi
3:30 AM46 °FFog.6 mph100%30.21 "Hg1 mi
3:00 AM48 °FLight fog.7 mph94%30.21 "HgN/A
2:30 AM48 °FLight fog.No wind100%30.21 "HgN/A
1:30 AM48 °FFog.6 mph100%30.21 "HgN/A
1:00 AM50 °FPassing clouds.7 mph94%30.21 "HgN/A
12:30 AM50 °FPassing clouds.7 mph100%30.21 "HgN/A
12:00 AM50 °FPassing clouds.8 mph100%30.21 "HgN/A
11:30 PM
Tue, Jul 7
50 °FPassing clouds.6 mph94%30.21 "HgN/A
11:00 PM52 °FPartly cloudy.5 mph94%30.21 "HgN/A
10:30 PM52 °FPassing clouds.6 mph100%30.21 "HgN/A
10:00 PM54 °FPassing clouds.3 mph94%30.21 "HgN/A
9:30 PM52 °FPassing clouds.7 mph94%30.21 "HgN/A
9:00 PM52 °FPassing clouds.5 mph94%30.21 "HgN/A
8:30 PM52 °FPartly cloudy.No wind94%30.21 "HgN/A
8:00 PM52 °FPartly cloudy.2 mph94%30.21 "HgN/A
7:30 PM54 °FPassing clouds.1 mph94%30.21 "HgN/A
7:00 PM52 °FPassing clouds.No wind94%30.21 "HgN/A
6:30 PM54 °FPassing clouds.No wind94%30.18 "HgN/A
6:00 PM54 °FPassing clouds.5 mph94%30.18 "HgN/A
5:30 PM54 °FPassing clouds.5 mph94%30.18 "HgN/A
5:00 PM55 °FPassing clouds.6 mph88%30.18 "HgN/A
4:30 PM57 °FPassing clouds.7 mph82%30.15 "HgN/A
4:00 PM57 °FPassing clouds.8 mph82%30.15 "HgN/A
3:30 PM59 °FPassing clouds.10 mph77%30.15 "HgN/A
3:00 PM57 °FPassing clouds.9 mph82%30.15 "HgN/A
2:30 PM59 °FPassing clouds.10 mph77%30.15 "HgN/A
2:00 PM57 °FScattered showers. Scattered clouds.10 mph82%30.15 "HgN/A
1:30 PM59 °FScattered showers. Scattered clouds.12 mph77%30.15 "HgN/A
1:00 PM59 °FScattered showers. Scattered clouds.13 mph77%30.15 "HgN/A
12:30 PM59 °FScattered showers. Scattered clouds.14 mph77%30.15 "HgN/A
12:00 PM59 °FScattered showers. Scattered clouds.13 mph82%30.18 "HgN/A
11:30 AM59 °FScattered showers. Passing clouds.13 mph82%30.18 "HgN/A
11:00 AM57 °FScattered showers. Scattered clouds.12 mph88%30.18 "HgN/A
10:30 AM57 °FSprinkles. Broken clouds.13 mph82%30.18 "HgN/A
10:00 AM57 °FBroken clouds.12 mph88%30.18 "HgN/A
Weather by CustomWeather, © 2015

See weather overviewHow to use our weather pages